Regional Weather Roundup
Issued by NWS

Home | Current Version | Previous Version | Text Only | Print | Product List | Glossary On
Versions: 1 2 3 4 5 6 7 8 9 10 11 12 13 14 15 16 17 18 19 20 21 22 23 24 25 26 27 28 29 30 31 32 33 34 35 36 37 38 39 40 41 42 43 44 45 46 47 48 49 50
000
ASUS43 KLSX 171357
RWRMO

WEATHER SUMMARY FOR MISSOURI
NATIONAL WEATHER SERVICE SPRINGFIELD MO
900 AM CDT TUE OCT 17 2017

NOTE: "FAIR" INDICATES FEW OR NO CLOUDS BELOW 12,000 FEET WITH NO
       SIGNIFICANT WEATHER AND/OR OBSTRUCTIONS TO VISIBILITY.
       CURRENT SKY AND/OR WEATHER CONDITIONS ARE NOT AVAILABLE FOR
       CHILLICOTHE AND FARMINGTON.

MOZ001>031-035>038-043-044-053-054-171500-
...NORTHERN AND WESTERN MISSOURI...

CITY           SKY/WX    TMP DP  RH WIND       PRES   REMARKS
KANSAS CTY INT MOSUNNY   54  43  66 S12       30.21R
LEE`S SUMMIT   MOSUNNY   53  42  66 S13       30.24R
ST JOSEPH      SUNNY     54  44  69 S9        30.19S
CHILLICOTHE      N/A     51  43  74 S9        30.24R

$$
MOZ066>068-077>081-088>096-101>105-171500-
...SOUTHWEST MISSOURI...

CITY           SKY/WX    TMP DP  RH WIND       PRES   REMARKS
SPRINGFIELD    CLOUDY    50  43  77 S8        30.31R
JOPLIN         MOSUNNY   52  45  77 S12       30.29R
BRANSON        PTSUNNY   48  39  71 CALM      30.34R

$$
MOZ032>034-039>042-045>050-055>058-069>072-171500-
...CENTRAL MISSOURI...

CITY           SKY/WX    TMP DP  RH WIND       PRES   REMARKS
COLUMBIA       NOT AVBL
JEFFERSON CITY MOSUNNY   49  41  74 SE6       30.31R
ROLLA          CLOUDY    52  39  61 S12       30.33R
SEDALIA        MOSUNNY   51  45  79 S8        30.28R
WARRENSBURG    MOSUNNY   46  41  81 S7        30.25S

$$
MOZ051-052-059>065-171500-
...EAST CENTRAL MISSOURI...

CITY           SKY/WX    TMP DP  RH WIND       PRES   REMARKS
ST LOUIS INTL  PTSUNNY   55  39  54 SW10      30.33R

$$
MOZ072>076-082>087-097>100-106>115-171500-
...SOUTH CENTRAL AND SOUTHEAST MISSOURI...

CITY           SKY/WX    TMP DP  RH WIND       PRES   REMARKS
CAPE GIRARDEAU SUNNY     44  43  96 CALM      30.39R
POPLAR BLUFF   CLOUDY    47  43  86 CALM      30.38R
WEST PLAINS    CLOUDY    51  40  65 S6        30.36R

$$


USA.gov is the U.S. government's official web portal to all federal, state and local government web resources and services.